Regional Weather Roundup
Issued by NWS

Home | Current Version | Previous Version | Text Only | Print | Product List | Glossary Off
Versions: 1 2 3 4 5 6 7 8 9 10 11 12 13 14 15 16 17 18 19 20 21 22 23 24 25 26 27 28 29 30 31 32 33 34 35 36 37 38 39 40 41 42 43 44 45 46 47 48 49 50

000
ASUS43 KBIS 011202
RWRND

NORTH DAKOTA REGIONAL WEATHER ROUNDUP
NATIONAL WEATHER SERVICE BISMARCK ND
700 AM CDT SUN MAY 01 2016

NOTE: "FAIR" INDICATES FEW OR NO CLOUDS BELOW 12,000 FEET WITH NO
SIGNIFICANT WEATHER AND/OR OBSTRUCTIONS TO VISIBILITY.


NDZ001>003-009>011-017-011300-
NORTHWEST NORTH DAKOTA

CITY           SKY/WX    TMP DP  RH WIND       PRES   REMARKS
WILLISTON      CLEAR     33  27  78 CALM      30.34S
6HR MIN TEMP:  30; 6HR MAX TEMP:  47;

MINOT          CLEAR     35  26  69 SW3       30.33R
MINOT AFB      CLEAR     29  26  88 NW7       30.33R
$$

NDZ018>021-031>035-040>046-011300-
SOUTHWEST NORTH DAKOTA

CITY           SKY/WX    TMP DP  RH WIND       PRES   REMARKS
BISMARCK       CLEAR     34  30  85 W5        30.32R
6HR MIN TEMP:  30; 6HR MAX TEMP:  40;

DICKINSON      CLEAR     30  24  78 W5        30.30S
GARRISON         N/A     33  28  81 N8        30.32R
6HR MIN TEMP:  31; 6HR MAX TEMP:  42;

HETTINGER ARPT CLEAR     27  22  81 W3        30.33R
$$

NDZ004>008-012>016-024-026-027-054-011300-
NORTHEAST NORTH DAKOTA

CITY           SKY/WX    TMP DP  RH WIND       PRES   REMARKS
GRAND FORKS    CLEAR     32  26  78 NW5       30.31R
GRND FRKS AFB  CLEAR     33  26  73 N5        30.31R
DEVILS LAKE    CLEAR     31  27  85 N3        30.32R
$$

NDZ022-023-025-028>030-036>039-047>053-011300-
SOUTHEAST NORTH DAKOTA

CITY           SKY/WX    TMP DP  RH WIND       PRES   REMARKS
FARGO          CLEAR     33  26  75 N3        30.29R
6HR MIN TEMP:  31; 6HR MAX TEMP:  46;

JAMESTOWN      CLEAR     32  27  81 N7        30.29R
$$




USA.gov is the U.S. government's official web portal to all federal, state and local government web resources and services.